Regional Weather Roundup
Issued by NWS State College, PA

Home | Current Version | Previous Version | Text Only | Print | Product List | Glossary On
Versions: 1 2 3 4 5 6 7 8 9 10 11 12 13 14 15 16 17 18 19 20 21 22 23 24 25 26 27 28 29 30 31 32 33 34 35 36 37 38 39 40 41 42 43 44 45 46 47 48 49 50
729
ASUS41 KCTP 231810
RWRCTP

REGIONAL WEATHER ROUNDUP
NATIONAL WEATHER SERVICE STATE COLLEGE PA
100 PM EST MON JAN 23 2017

Note: "fair" indicates few or no clouds below 12,000 feet with no
significant weather and/or obstructions to visibility.

* = STATION THAT DOES NOT REPORT PRECIPITATION /E.G. RAIN...SNOW...ETC/
    THUNDER OR FOG.

PAZ002>004-007>009-013>016-020>023-029>032-231900-
WESTERN PENNSYLVANIA

CITY           SKY/WX    TMP DP  RH WIND       PRES   REMARKS
ERIE           CLOUDY    45  40  82 NE18G25   29.60F
MEADVILLE      CLOUDY    50  39  66 E16G23    29.56F
FRANKLIN*        N/A     46  39  76 E12G20    29.57F
NEW CASTLE     LGT RAIN  47  42  83 E14G22    29.56F
BEAVER COUNTY  LGT RAIN  43  41  93 E8        29.54F
BUTLER*        CLOUDY    41  37  87 E13G21    29.57S
PITTSBURGH INT RAIN      43  40  89 E13G22    29.52F FOG
PITTSBURGH     LGT RAIN  42  37  82 NE8       29.51S
INDIANA*       CLOUDY    41  37  87 E13G18    29.55S
LATROBE        LGT RAIN  41  37  87 NE12G23   29.53R FOG
WASHINGTON CO* CLOUDY    43  39  87 NE14G20   29.52R
$$

PAZ004>006-010>012-017>019-024>028-033>037-041-042-045-046-049>053-231900-
CENTRAL PENNSYLVANIA

CITY           SKY/WX    TMP DP  RH WIND       PRES   REMARKS
BRADFORD       CLOUDY    43  38  82 E10G21    29.59F
DUBOIS         LGT RAIN  42  38  85 E15G22    29.54F
CLEARFIELD     LGT RAIN  40  39  97 NE12G22   29.56F FOG
JOHNSTOWN      LGT RAIN  36  36 100 E13G22    29.47S
ALTOONA        LGT RAIN  39  39 100 NE15G25   29.52F FOG
STATE COLLEGE  DRIZZLE   37  36  93 NE16G23   29.58F
WILLIAMSPORT   LGT RAIN  42  34  73 E10       29.63F
SELINSGROVE    CLOUDY    40  33  76 NE14G22   29.62F
FT INDIANTOWN  LGT RAIN  39  39 100 NE14G24   29.57F
CAPITAL CITY   LGT RAIN  40  34  79 E16G23    29.58F
HARRISBURG     LGT RAIN  39  35  86 E10G22    29.57F
YORK           RAIN      38  36  92 E16G30    29.53F FOG
$$

PAZ038>040-043-044-047-048-054-055-060>062-067>071-231900-
EASTERN PENNSYLVANIA

CITY           SKY/WX    TMP DP  RH WIND       PRES   REMARKS
SCRANTON       CLOUDY    38  29  70 NE13G22   29.68F
MOUNT POCONO   CLOUDY    31  26  82 E28G38    29.63F
ALLENTOWN      LGT RAIN  40  30  67 E23G35    29.65F
QUAKERTOWN*    CLOUDY    37  32  81 E13G25    29.62F
READING        LGT RAIN  39  34  82 E9G31     29.60F
LANCASTER      HVY RAIN  38  35  89 E22G30    29.57F FOG
COATESVILLE    LGT RAIN  36  36 100 E25G46    29.57R
POTTSTOWN      LGT RAIN  36  32  85 E13G24    29.64F
BLUE BELL      CLOUDY    36  32  87 E23G36    29.60F
DOYLESTOWN     CLOUDY    39  33  79 MISG      29.61F
WILLOW GROVE   NOT AVBL
NORTH PHILA    LGT RAIN  40  35  83 NE23G39   29.64F
PHILADELPHIA   LGT RAIN  39  36  89 E26G41    29.59F FOG
$$




USA.gov is the U.S. government's official web portal to all federal, state and local government web resources and services.